This is the latest recevied weather packets stored in our database for station/object WD8EHT. If no packets are shown the sender has not sent any weather packets the latest 1 day(s).
| Time | Temp. | Humidity | Pressure | Rain* | Wind** | Luminosity | Snow |
|---|---|---|---|---|---|---|---|
| 1778042861 | 8.33° C | 59% | 1007.7 hPa | 0 mm | - | 0 W/m² | - |
| 1778042558 | 8.33° C | 59% | 1007.7 hPa | 0 mm | - | 0 W/m² | - |
| 1778041953 | 8.33° C | 60% | 1007.8 hPa | 0 mm | - | 0 W/m² | - |
| 1778041048 | 8.33° C | 60% | 1008 hPa | 0 mm | - | 0 W/m² | - |
| 1778040744 | 8.33° C | 60% | 1007.8 hPa | 0 mm | - | 0 W/m² | - |
| 1778040442 | 8.33° C | 60% | 1007.4 hPa | 0 mm | - | 0 W/m² | - |
| 1778040139 | 8.33° C | 59% | 1007.4 hPa | 0 mm | - | 0 W/m² | - |
| 1778039835 | 8.33° C | 59% | 1007.4 hPa | 0 mm | - | 0 W/m² | - |
| 1778039229 | 8.33° C | 59% | 1007.3 hPa | 0 mm | - | 0 W/m² | - |
| 1778038624 | 8.33° C | 62% | 1007.6 hPa | 0 mm | - | 0 W/m² | - |
| 1778038320 | 8.33° C | 62% | 1007.7 hPa | 0 mm | - | 0 W/m² | - |
| 1778037411 | 8.33° C | 61% | 1007.7 hPa | 0 mm | - | 0 W/m² | - |
| 1778037108 | 8.33° C | 62% | 1007.7 hPa | 0 mm | - | 0 W/m² | - |
| 1778036807 | 8.33° C | 62% | 1007.4 hPa | 0 mm | - | 0 W/m² | - |
| 1778036504 | 8.33° C | 61% | 1007.6 hPa | 0 mm | - | 0 W/m² | - |
| 1778036200 | 8.33° C | 63% | 1007.6 hPa | 0 mm | - | 0 W/m² | - |
| 1778035896 | 8.33° C | 64% | 1007.8 hPa | 0 mm | - | 0 W/m² | - |
| 1778035290 | 8.33° C | 62% | 1007.6 hPa | 0 mm | - | 0 W/m² | - |
| 1778034987 | 8.33° C | 61% | 1007.6 hPa | 0 mm | - | 0 W/m² | - |
| 1778034684 | 8.33° C | 60% | 1007.4 hPa | 0 mm | - | 0 W/m² | - |
| 1778034381 | 8.33° C | 61% | 1007.1 hPa | 0 mm | - | 0 W/m² | - |
| 1778034078 | 8.33° C | 61% | 1007.4 hPa | 0 mm | - | 0 W/m² | - |
| 1778033776 | 8.33° C | 60% | 1007.5 hPa | 0 mm | - | 0 W/m² | - |
| 1778033473 | 8.33° C | 60% | 1007.3 hPa | 0 mm | - | 0 W/m² | - |
| 1778033170 | 8.33° C | 62% | 1007.2 hPa | 0 mm | - | 0 W/m² | - |
* Rain latest hour (hover to see other rain measurements)
** Current wind speed in m/s (hover to see current wind gust speed)